Location: Newark
(45.9456°N, 15.4064°E)
Time: 01:55:26
(UTC+00:00)

Vanguard 3 - Pass Details

Date: 24 January 2020
Orbit: 508 x 3263 km, 33.3° (Epoch: 21 February)

Event Time Altitude Azimuth Distance (km) Brightness Sun altitude
Rises 12:48:33 0° 170° (S) 6,685 12.7 21.1°
Reaches altitude 10° 12:59:59 10° 138° (SE) 6,131 11.9 20.2°
Maximum altitude 13:02:57 11° 129° (SE) 6,134 11.8 20.0°
Drops below altitude 10° 13:05:57 10° 120° (ESE) 6,200 11.7 19.7°
Sets 13:17:42 0° 89° (E) 7,008 11.6 18.7°
